Regional Weather Roundup
Issued by NWS Upton, NY

Current Version | Previous Version | Graphics & Text | Print | Product List | Glossary Off
Versions: 1 2 3 4 5 6 7 8 9 10 11 12 13 14 15 16 17 18 19 20 21 22 23 24 25 26 27 28 29 30 31 32 33 34 35 36 37 38 39 40 41 42 43 44 45 46 47 48 49 50

000
ASUS41 KOKX 280905
RWROKX

REGIONAL WEATHER ROUNDUP
NATIONAL WEATHER SERVICE NEW YORK NY
500 AM EDT MON JUL 28 2014

NOTE: "FAIR" INDICATES FEW OR NO CLOUDS BELOW 12,000 FEET WITH NO
SIGNIFICANT WEATHER AND/OR OBSTRUCTIONS TO VISIBILITY.

NYZ071-072-176-178-NJZ106-104-281000-
NEW YORK CITY METRO AREA


CITY           SKY/WX    TMP DP  RH WIND       PRES   REMARKS
CENTRAL PARK   CLOUDY    69  66  90 W8        29.57F
LAGUARDIA APRT CLOUDY    71  66  84 SW5       29.54F
KENNEDY INTL   LGT RAIN  70  66  87 S5        29.55F
NEWARK/LIBERTY CLOUDY    70  68  93 S5        29.54F
BRNX BOT. GARD   N/A     68  66  94 CALM      29.57S
TETERBORO      CLOUDY    72  67  84 S3        29.53F
$$

NYZ177-179-078>081-281000-
LONG ISLAND NEW YORK

CITY           SKY/WX    TMP DP  RH WIND       PRES   REMARKS
FARMINGDALE    LGT RAIN  68  67  96 S3        29.55F
ISLIP          CLOUDY    70  66  87 S8        29.55F
SHIRLEY        LGT RAIN  70  68  93 SE9       29.58F FOG
WESTHAMPTON    HVY RAIN  70  66  88 SW9G32    29.61S FOG
MONTAUK POINT    N/A     72  71  97 S7        29.62F
$$

NYZ052-065-067-281000-
HUDSON VALLEY

CITY           SKY/WX    TMP DP  RH WIND       PRES   REMARKS
WHITE PLAINS   CLOUDY    70  67  90 CALM      29.54F
NEWBURGH       MOCLDY    70  64  83 CALM      29.56F
MONTGOMERY     CLOUDY    69  67  93 CALM      29.54F
POUGHKEEPSIE   CLOUDY    70  67  90 CALM      29.53F
ALBANY         LGT RAIN  68  65  90 N8        29.56F
$$

NJZ001-105-106-008-010-013-015-019>022-104-281000-
NEW JERSEY

CITY           SKY/WX    TMP DP  RH WIND       PRES   REMARKS
NEWARK/LIBERTY CLOUDY    70  68  93 S5        29.54F
TETERBORO      CLOUDY    72  67  84 S3        29.53F
CALDWELL       CLOUDY    70  66  87 CALM      29.54F
MORRISTOWN     CLOUDY    72  68  88 CALM      29.54F
SOMERVILLE     MOCLDY    68  67  96 S5        29.53S
LINDEN         FAIR      71  68  90 CALM      29.56S
SUSSEX         LGT RAIN  71  67  87 CALM      29.55F
ANDOVER          N/A     68  66  93 CALM      29.55F
TRENTON        MOCLDY    67  66  97 MISG      29.54F
MILLVILLE      CLOUDY    70  69  97 SE3       29.57F
ATLANTIC CITY  MOCLDY    68  68 100 S3        29.57F
WRIGHTSTOWN    MOCLDY    67  66  99 S5        29.54F
TOMS RIVER     MOCLDY    68  66  94 SW5       29.56F
BELMAR         MOCLDY    68  63  83 CALM      29.56R
$$

PAZ047>061-062-071-281000-
EASTERN PENNSYLVANIA

CITY           SKY/WX    TMP DP  RH WIND       PRES   REMARKS
PHILADELPHIA   MOCLDY    70  66  87 S6        29.56F
ALLENTOWN      CLOUDY    68  65  90 W3        29.54F
SCRANTON       CLOUDY    67  62  84 CALM      29.56F
$$

CTZ002-004>006-009-010-012-RIZ004-006-007-MAZ004-011-015-281000-
SOUTHERN NEW ENGLAND
 IN CT

CITY           SKY/WX    TMP DP  RH WIND       PRES   REMARKS
BRADLEY INTL   CLOUDY    67  64  90 NE6       29.56F
HARTFORD       CLOUDY    72  69  90 S5        29.57F
DANBURY        CLOUDY    73  69  87 S5        29.57F
WTRBRY/OXFORD  CLOUDY    72  68  88 S9        29.60F
BRIDGEPORT     RAIN      74  72  93 S8        29.56F FOG
MERIDEN        LGT RAIN  73  70  90 SE5       29.57F
NEW HAVEN      RAIN      75  71  87 S8        29.58S FOG
CHESTER        LGT RAIN  72  72 100 SE7       29.61F
GROTON         CLOUDY    70  70 100 SE7       29.60F FOG
WILLIMANTIC    CLOUDY    69  68  96 CALM      29.60F FOG

 IN RI

CITY           SKY/WX    TMP DP  RH WIND       PRES   REMARKS
PROVIDENCE     CLOUDY    72  70  93 S7        29.63S
BLOCK ISLAND   CLOUDY    72  70  94 S10       29.62F
WESTERLY       CLOUDY    72  70  93 SE9       29.62F FOG

 IN MA

CITY           SKY/WX    TMP DP  RH WIND       PRES   REMARKS
BOSTON         CLOUDY    69  68  96 SE3       29.63F FOG
WORCESTER      FOG       66  66 100 SE7       29.65S VSB 1/4
WESTFIELD      CLOUDY    67  64  90 N6        29.57F
PROVINCETOWN   MOCLDY    70  70 100 S10G18    29.66S
NANTUCKET      FOG       68  67  96 S8        29.68S VSB 1/4
$$

ANZ330-335-338-340-345-350-353-355-281000-
COASTAL MARINE OBSERVATIONS


STATION/POSITION TIME  SKY/WX   TEMP    WIND        PRES    VSBY  WAVE
                                AIR SEA DIR/SP/G                  HT/PER
                 (UTC)          (F)     (DEG/KT/KT) (MB)    (MI)  (FT/S)
NY HARB ENTRANCE NOT AVBL
4S FIRE IS       NOT AVBL
23SW MTP         0900            73 70              1002.3          4/ 6
HUDSON CANYON    NOT AVBL
EXECUTION ROCKS  0900            71 71  220/ 10/ 12   N/A
WESTERN LI SOUND 0900            72     220/ 12/ 14   N/A           0
CENTRAL LI SOUND 0900            73 72  190/ 10/ 14   N/A           2/ 3
EASTERN LI SOUND 0800            70 67  150/  6/  8   N/A
ROBBINS REEF     0900            71     200/  6/  8   N/A
$$


>>>>>>>>>>>>>>>>>>>>>>>>>>>> KEY <<<<<<<<<<<<<<<<<<<<<<<<<<<
>                                                          <
>     SKY/WX - SKY CONDITION/PRESENT WEATHER               <
>     TMP    - TEMPERATURE IN FAHRENHEIT                   <
>     DP     - DEWPOINT IN FAHRENHEIT                      <
>     RH     - RELATIVE HUMIDITY IN PERCENT                <
>     WIND   - DIRECTION AND SPEED IN MPH                  <
>     PRES   - MEAN SEA LEVEL PRESSURE IN INCHES OF HG     <
>     WCI    - WIND CHILL INDEX                            <
>     VSB    - VISIBILITY IN MILES                         <
>     HX     - HEAT INDEX                                  <
>     TC     - TEMPERATURE IN CELSIUS                      <
>     VRB    - VARIABLE WIND DIRECTION                     <
>                                                          <
>>>>>>>>>>>>>>>>>>>>>>>>>>>> KEY <<<<<<<<<<<<<<<<<<<<<<<<<<<




USA.gov is the U.S. government's official web portal to all federal, state and local government web resources and services.